Year,Month,Day,Hour,Minute,Value (Times are PST for temperature in C)
2018,07,16,00,00,17.80
2018,07,16,00,01,17.80
2018,07,16,00,02,17.80
2018,07,16,00,03,17.80
2018,07,16,00,04,17.60
2018,07,16,00,05,17.50
2018,07,16,00,06,17.40
2018,07,16,00,07,17.30
2018,07,16,00,08,17.20
2018,07,16,00,09,17.10
2018,07,16,00,10,17.10
2018,07,16,00,11,17.10
2018,07,16,00,12,17.00
2018,07,16,00,13,17.00
2018,07,16,00,14,16.90
2018,07,16,00,15,16.90
2018,07,16,00,16,16.90
2018,07,16,00,17,16.90
2018,07,16,00,18,16.90
2018,07,16,00,19,17.00
2018,07,16,00,20,17.00
2018,07,16,00,21,17.10
2018,07,16,00,22,17.10
2018,07,16,00,23,17.10
2018,07,16,00,24,17.10
2018,07,16,00,25,17.10
2018,07,16,00,26,17.10
2018,07,16,00,27,17.10
2018,07,16,00,28,17.10
2018,07,16,00,29,17.10
2018,07,16,00,30,17.10
2018,07,16,00,31,17.20
2018,07,16,00,32,17.20
2018,07,16,00,33,17.20
2018,07,16,00,34,17.20
2018,07,16,00,35,17.20
2018,07,16,00,36,17.20
2018,07,16,00,37,17.10
2018,07,16,00,38,17.10
2018,07,16,00,39,17.00
2018,07,16,00,40,17.00
2018,07,16,00,41,17.00
2018,07,16,00,42,16.90
2018,07,16,00,43,16.90
2018,07,16,00,44,16.90
2018,07,16,00,45,16.90
2018,07,16,00,46,16.80
2018,07,16,00,47,16.80
2018,07,16,00,48,16.80
2018,07,16,00,49,16.80
2018,07,16,00,50,16.80
2018,07,16,00,51,16.70
2018,07,16,00,52,16.70
2018,07,16,00,53,16.70
2018,07,16,00,54,16.70
2018,07,16,00,55,16.70
2018,07,16,00,56,16.70
2018,07,16,00,57,16.60
2018,07,16,00,58,16.60
2018,07,16,00,59,16.60
2018,07,16,01,00,16.60
2018,07,16,01,01,16.60
2018,07,16,01,02,16.60
2018,07,16,01,03,16.50
2018,07,16,01,04,16.50
2018,07,16,01,05,16.50
2018,07,16,01,06,16.50
2018,07,16,01,07,16.50
2018,07,16,01,08,16.50
2018,07,16,01,09,16.50
2018,07,16,01,10,16.50
2018,07,16,01,11,16.50
2018,07,16,01,12,16.50
2018,07,16,01,13,16.50
2018,07,16,01,14,16.50
2018,07,16,01,15,16.50
2018,07,16,01,16,16.40
2018,07,16,01,17,16.40
2018,07,16,01,18,16.40
2018,07,16,01,19,16.40
2018,07,16,01,20,16.40
2018,07,16,01,21,16.40
2018,07,16,01,22,16.40
2018,07,16,01,23,16.40
2018,07,16,01,24,16.40
2018,07,16,01,25,16.40
2018,07,16,01,26,16.40
2018,07,16,01,27,16.30
2018,07,16,01,28,16.30
2018,07,16,01,29,16.30
2018,07,16,01,30,16.30
2018,07,16,01,31,16.30
2018,07,16,01,32,16.30
2018,07,16,01,33,16.30
2018,07,16,01,34,16.20
2018,07,16,01,35,16.20
2018,07,16,01,36,16.20
2018,07,16,01,37,16.20
2018,07,16,01,38,16.20
2018,07,16,01,39,16.20
2018,07,16,01,40,16.20
2018,07,16,01,41,16.20
2018,07,16,01,42,16.20
2018,07,16,01,43,16.10
2018,07,16,01,44,16.20
2018,07,16,01,45,16.10
2018,07,16,01,46,16.10
2018,07,16,01,47,16.10
2018,07,16,01,48,16.10
2018,07,16,01,49,16.10
2018,07,16,01,50,16.10
2018,07,16,01,51,16.10
2018,07,16,01,52,16.00
2018,07,16,01,53,16.00
2018,07,16,01,54,15.90
2018,07,16,01,55,15.90
2018,07,16,01,56,15.90
2018,07,16,01,57,15.90
2018,07,16,01,58,15.80
2018,07,16,01,59,15.80
2018,07,16,02,00,15.80
2018,07,16,02,01,15.80
2018,07,16,02,02,15.80
2018,07,16,02,03,15.70
2018,07,16,02,04,15.70
2018,07,16,02,05,15.70
2018,07,16,02,06,15.70
2018,07,16,02,07,15.70
2018,07,16,02,08,15.70
2018,07,16,02,09,15.60
2018,07,16,02,10,15.60
2018,07,16,02,11,15.60
2018,07,16,02,12,15.60
2018,07,16,02,13,15.50
2018,07,16,02,14,15.50
2018,07,16,02,15,15.50
2018,07,16,02,16,15.50
2018,07,16,02,17,15.40
2018,07,16,02,18,15.40
2018,07,16,02,19,15.40
2018,07,16,02,20,15.40
2018,07,16,02,21,15.40
2018,07,16,02,22,15.40
2018,07,16,02,23,15.40
2018,07,16,02,24,15.30
2018,07,16,02,25,15.30
2018,07,16,02,26,15.30
2018,07,16,02,27,15.30
2018,07,16,02,28,15.30
2018,07,16,02,29,15.30
2018,07,16,02,30,15.30
2018,07,16,02,31,15.30
2018,07,16,02,32,15.30
2018,07,16,02,33,15.30
2018,07,16,02,34,15.30
2018,07,16,02,35,15.30
2018,07,16,02,36,15.30
2018,07,16,02,37,15.30
2018,07,16,02,38,15.30
2018,07,16,02,39,15.30
2018,07,16,02,40,15.30
2018,07,16,02,41,15.30
2018,07,16,02,42,15.20
2018,07,16,02,43,15.20
2018,07,16,02,44,15.20
2018,07,16,02,45,15.20
2018,07,16,02,46,15.20
2018,07,16,02,47,15.10
2018,07,16,02,48,15.10
2018,07,16,02,49,15.10
2018,07,16,02,50,15.00
2018,07,16,02,51,15.00
2018,07,16,02,52,15.00
2018,07,16,02,53,14.90
2018,07,16,02,54,15.00
2018,07,16,02,55,15.00
2018,07,16,02,56,15.10
2018,07,16,02,57,15.10
2018,07,16,02,58,15.20
2018,07,16,02,59,15.10
2018,07,16,03,00,15.10
2018,07,16,03,01,15.10
2018,07,16,03,02,15.00
2018,07,16,03,03,15.00
2018,07,16,03,04,15.00
2018,07,16,03,05,14.90
2018,07,16,03,06,14.90
2018,07,16,03,07,14.90
2018,07,16,03,08,14.90
2018,07,16,03,09,14.80
2018,07,16,03,10,14.80
2018,07,16,03,11,14.80
2018,07,16,03,12,14.80
2018,07,16,03,13,14.80
2018,07,16,03,14,14.80
2018,07,16,03,15,14.80
2018,07,16,03,16,14.80
2018,07,16,03,17,14.80
2018,07,16,03,18,14.70
2018,07,16,03,19,14.70
2018,07,16,03,20,14.80
2018,07,16,03,21,14.80
2018,07,16,03,22,14.80
2018,07,16,03,23,14.80
2018,07,16,03,24,14.80
2018,07,16,03,25,14.90
2018,07,16,03,26,15.00
2018,07,16,03,27,15.00
2018,07,16,03,28,15.10
2018,07,16,03,29,15.00
2018,07,16,03,30,15.00
2018,07,16,03,31,14.90
2018,07,16,03,32,14.90
2018,07,16,03,33,14.90
2018,07,16,03,34,14.90
2018,07,16,03,35,15.00
2018,07,16,03,36,15.00
2018,07,16,03,37,15.10
2018,07,16,03,38,15.10
2018,07,16,03,39,15.20
2018,07,16,03,40,15.20
2018,07,16,03,41,15.20
2018,07,16,03,42,15.20
2018,07,16,03,43,15.30
2018,07,16,03,44,15.30
2018,07,16,03,45,15.30
2018,07,16,03,46,15.30
2018,07,16,03,47,15.40
2018,07,16,03,48,15.40
2018,07,16,03,49,15.40
2018,07,16,03,50,15.40
2018,07,16,03,51,15.40
2018,07,16,03,52,15.40
2018,07,16,03,53,15.40
2018,07,16,03,54,15.40
2018,07,16,03,55,15.30
2018,07,16,03,56,15.30
2018,07,16,03,57,15.20
2018,07,16,03,58,15.20
2018,07,16,03,59,15.10
2018,07,16,04,00,15.10
2018,07,16,04,01,15.10
2018,07,16,04,02,15.00
2018,07,16,04,03,14.90
2018,07,16,04,04,14.90
2018,07,16,04,05,14.80
2018,07,16,04,06,14.80
2018,07,16,04,07,14.70
2018,07,16,04,08,14.60
2018,07,16,04,09,14.60
2018,07,16,04,10,14.60
2018,07,16,04,11,14.50
2018,07,16,04,12,14.50
2018,07,16,04,13,14.50
2018,07,16,04,14,14.50
2018,07,16,04,15,14.40
2018,07,16,04,16,14.40
2018,07,16,04,17,14.40
2018,07,16,04,18,14.30
2018,07,16,04,19,14.30
2018,07,16,04,20,14.30
2018,07,16,04,21,14.30
2018,07,16,04,22,14.30
2018,07,16,04,23,14.30
2018,07,16,04,24,14.30
2018,07,16,04,25,14.30
2018,07,16,04,26,14.30
2018,07,16,04,27,14.30
2018,07,16,04,28,14.30
2018,07,16,04,29,14.30
2018,07,16,04,30,14.30
2018,07,16,04,31,14.30
2018,07,16,04,32,14.30
2018,07,16,04,33,14.20
2018,07,16,04,34,14.20
2018,07,16,04,35,14.20
2018,07,16,04,36,14.20
2018,07,16,04,37,14.20
2018,07,16,04,38,14.20
2018,07,16,04,39,14.20
2018,07,16,04,40,14.10
2018,07,16,04,41,14.10
2018,07,16,04,42,14.10
2018,07,16,04,43,14.10
2018,07,16,04,44,14.10
2018,07,16,04,45,14.10
2018,07,16,04,46,14.10
2018,07,16,04,47,14.10
2018,07,16,04,48,14.10
2018,07,16,04,49,14.10
2018,07,16,04,50,14.00
2018,07,16,04,51,14.00
2018,07,16,04,52,14.00
2018,07,16,04,53,14.00
2018,07,16,04,54,14.00
2018,07,16,04,55,13.90
2018,07,16,04,56,13.90
2018,07,16,04,57,13.90
2018,07,16,04,58,13.90
2018,07,16,04,59,13.90
2018,07,16,05,00,13.90
2018,07,16,05,01,13.90
2018,07,16,05,02,13.90
2018,07,16,05,03,13.90
2018,07,16,05,04,13.90
2018,07,16,05,05,13.90
2018,07,16,05,06,13.90
2018,07,16,05,07,13.80
2018,07,16,05,08,13.80
2018,07,16,05,09,13.80
2018,07,16,05,10,13.80
2018,07,16,05,11,13.70
2018,07,16,05,12,13.70
2018,07,16,05,13,13.70
2018,07,16,05,14,13.70
2018,07,16,05,15,13.70
2018,07,16,05,16,13.70
2018,07,16,05,17,13.70
2018,07,16,05,18,13.70
2018,07,16,05,19,13.60
2018,07,16,05,20,13.60
2018,07,16,05,21,13.60
2018,07,16,05,22,13.60
2018,07,16,05,23,13.60
2018,07,16,05,24,13.60
2018,07,16,05,25,13.50
2018,07,16,05,26,13.50
2018,07,16,05,27,13.50
2018,07,16,05,28,13.50
2018,07,16,05,29,13.50
2018,07,16,05,30,13.40
2018,07,16,05,31,13.40
2018,07,16,05,32,13.40
2018,07,16,05,33,13.40
2018,07,16,05,34,13.40
2018,07,16,05,35,13.40
2018,07,16,05,36,13.50
2018,07,16,05,37,13.50
2018,07,16,05,38,13.50
2018,07,16,05,39,13.50
2018,07,16,05,40,13.50
2018,07,16,05,41,13.40
2018,07,16,05,42,13.40
2018,07,16,05,43,13.40
2018,07,16,05,44,13.40
2018,07,16,05,45,13.40
2018,07,16,05,46,13.40
2018,07,16,05,47,13.40
2018,07,16,05,48,13.40
2018,07,16,05,49,13.40
2018,07,16,05,50,13.40
2018,07,16,05,51,13.30
2018,07,16,05,52,13.30
2018,07,16,05,53,13.30
2018,07,16,05,54,13.30
2018,07,16,05,55,13.30
2018,07,16,05,56,13.30
2018,07,16,05,57,13.40
2018,07,16,05,58,13.40
2018,07,16,05,59,13.40
2018,07,16,06,00,13.40
2018,07,16,06,01,13.40
2018,07,16,06,02,13.40
2018,07,16,06,03,13.40
2018,07,16,06,04,13.40
2018,07,16,06,05,13.40
2018,07,16,06,06,13.40
2018,07,16,06,07,13.40
2018,07,16,06,08,13.40
2018,07,16,06,09,13.50
2018,07,16,06,10,13.50
2018,07,16,06,11,13.60
2018,07,16,06,12,13.60
2018,07,16,06,13,13.60
2018,07,16,06,14,13.60
2018,07,16,06,15,13.60
2018,07,16,06,16,13.70
2018,07,16,06,17,13.70
2018,07,16,06,18,13.70
2018,07,16,06,19,13.80
2018,07,16,06,20,13.80
2018,07,16,06,21,13.90
2018,07,16,06,22,14.00
2018,07,16,06,23,14.00
2018,07,16,06,24,14.10
2018,07,16,06,25,14.10
2018,07,16,06,26,14.20
2018,07,16,06,27,14.20
2018,07,16,06,28,14.30
2018,07,16,06,29,14.30
2018,07,16,06,30,14.40
2018,07,16,06,31,14.50
2018,07,16,06,32,14.60
2018,07,16,06,33,14.60
2018,07,16,06,34,14.70
2018,07,16,06,35,14.70
2018,07,16,06,36,14.70
2018,07,16,06,37,14.80
2018,07,16,06,38,14.80
2018,07,16,06,39,14.80
2018,07,16,06,40,14.90
2018,07,16,06,41,15.00
2018,07,16,06,42,15.10
2018,07,16,06,43,15.20
2018,07,16,06,44,15.20
2018,07,16,06,45,15.30
2018,07,16,06,46,15.50
2018,07,16,06,47,15.50
2018,07,16,06,48,15.60
2018,07,16,06,49,15.60
2018,07,16,06,50,15.70
2018,07,16,06,51,15.70
2018,07,16,06,52,15.70
2018,07,16,06,53,15.80
2018,07,16,06,54,15.80
2018,07,16,06,55,15.80
2018,07,16,06,56,15.80
2018,07,16,06,57,15.90
2018,07,16,06,58,15.90
2018,07,16,06,59,16.00
2018,07,16,07,00,16.10
2018,07,16,07,01,16.10
2018,07,16,07,02,16.20
2018,07,16,07,03,16.20
2018,07,16,07,04,16.30
2018,07,16,07,05,16.40
2018,07,16,07,06,16.50
2018,07,16,07,07,16.60
2018,07,16,07,08,16.70
2018,07,16,07,09,16.80
2018,07,16,07,10,16.90
2018,07,16,07,11,17.00
2018,07,16,07,12,17.10
2018,07,16,07,13,17.20
2018,07,16,07,14,17.30
2018,07,16,07,15,17.40
2018,07,16,07,16,17.40
2018,07,16,07,17,17.40
2018,07,16,07,18,17.40
2018,07,16,07,19,17.40
2018,07,16,07,20,17.40
2018,07,16,07,21,17.40
2018,07,16,07,22,17.50
2018,07,16,07,23,17.60
2018,07,16,07,24,17.60
2018,07,16,07,25,17.70
2018,07,16,07,26,17.70
2018,07,16,07,27,17.70
2018,07,16,07,28,17.70
2018,07,16,07,29,17.80
2018,07,16,07,30,17.80
2018,07,16,07,31,17.90
2018,07,16,07,32,17.90
2018,07,16,07,33,17.90
2018,07,16,07,34,18.00
2018,07,16,07,35,18.00
2018,07,16,07,36,18.00
2018,07,16,07,37,18.10
2018,07,16,07,38,18.10
2018,07,16,07,39,18.10
2018,07,16,07,40,18.10
2018,07,16,07,41,18.10
2018,07,16,07,42,18.10
2018,07,16,07,43,18.20
2018,07,16,07,44,18.20
2018,07,16,07,45,18.20
2018,07,16,07,46,18.30
2018,07,16,07,47,18.30
2018,07,16,07,48,18.40
2018,07,16,07,49,18.50
2018,07,16,07,50,18.70
2018,07,16,07,51,18.90
2018,07,16,07,52,19.00
2018,07,16,07,53,19.20
2018,07,16,07,54,19.20
2018,07,16,07,55,19.30
2018,07,16,07,56,19.30
2018,07,16,07,57,19.40
2018,07,16,07,58,19.50
2018,07,16,07,59,19.50
2018,07,16,08,00,19.60
2018,07,16,08,01,19.60
2018,07,16,08,02,19.70
2018,07,16,08,03,19.80
2018,07,16,08,04,19.90
2018,07,16,08,05,20.00
2018,07,16,08,06,20.00
2018,07,16,08,07,20.10
2018,07,16,08,08,20.10
2018,07,16,08,09,20.10
2018,07,16,08,10,20.20
2018,07,16,08,11,20.30
2018,07,16,08,12,20.50
2018,07,16,08,13,20.60
2018,07,16,08,14,20.60
2018,07,16,08,15,20.70
2018,07,16,08,16,20.70
2018,07,16,08,17,20.70
2018,07,16,08,18,20.70
2018,07,16,08,19,20.70
2018,07,16,08,20,20.80
2018,07,16,08,21,20.80
2018,07,16,08,22,20.80
2018,07,16,08,23,20.90
2018,07,16,08,24,20.90
2018,07,16,08,25,20.90
2018,07,16,08,26,20.90
2018,07,16,08,27,20.90
2018,07,16,08,28,20.90
2018,07,16,08,29,20.90
2018,07,16,08,30,20.90
2018,07,16,08,31,20.90
2018,07,16,08,32,21.00
2018,07,16,08,33,21.00
2018,07,16,08,34,21.00
2018,07,16,08,35,21.10
2018,07,16,08,36,21.10
2018,07,16,08,37,21.10
2018,07,16,08,38,21.20
2018,07,16,08,39,21.20
2018,07,16,08,40,21.20
2018,07,16,08,41,21.30
2018,07,16,08,42,21.40
2018,07,16,08,43,21.60
2018,07,16,08,44,21.70
2018,07,16,08,45,21.70
2018,07,16,08,46,21.80
2018,07,16,08,47,21.90
2018,07,16,08,48,21.90
2018,07,16,08,49,21.90
2018,07,16,08,50,21.90
2018,07,16,08,51,22.00
2018,07,16,08,52,22.00
2018,07,16,08,53,22.10
2018,07,16,08,54,22.20
2018,07,16,08,55,22.20
2018,07,16,08,56,22.30
2018,07,16,08,57,22.30
2018,07,16,08,58,22.30
2018,07,16,08,59,22.30
2018,07,16,09,00,22.30
2018,07,16,09,01,22.30
2018,07,16,09,02,22.30
2018,07,16,09,03,22.20
2018,07,16,09,04,22.10
2018,07,16,09,05,22.00
2018,07,16,09,06,21.90
2018,07,16,09,07,21.90
2018,07,16,09,08,21.90
2018,07,16,09,09,21.90
2018,07,16,09,10,21.90
2018,07,16,09,11,21.90
2018,07,16,09,12,21.90
2018,07,16,09,13,21.90
2018,07,16,09,14,21.90
2018,07,16,09,15,21.90
2018,07,16,09,16,21.90
2018,07,16,09,17,22.00
2018,07,16,09,18,22.00
2018,07,16,09,19,22.10
2018,07,16,09,20,22.10
2018,07,16,09,21,22.20
2018,07,16,09,22,22.30
2018,07,16,09,23,22.40
2018,07,16,09,24,22.40
2018,07,16,09,25,22.40
2018,07,16,09,26,22.50
2018,07,16,09,27,22.60
2018,07,16,09,28,22.60
2018,07,16,09,29,22.60
2018,07,16,09,30,22.60
2018,07,16,09,31,22.70
2018,07,16,09,32,22.60
2018,07,16,09,33,22.60
2018,07,16,09,34,22.60
2018,07,16,09,35,22.50
2018,07,16,09,36,22.40
2018,07,16,09,37,22.30
2018,07,16,09,38,22.20
2018,07,16,09,39,22.20
2018,07,16,09,40,22.20
2018,07,16,09,41,22.20
2018,07,16,09,42,22.20
2018,07,16,09,43,22.20
2018,07,16,09,44,22.10
2018,07,16,09,45,22.10
2018,07,16,09,46,22.10
2018,07,16,09,47,22.10
2018,07,16,09,48,22.00
2018,07,16,09,49,22.00
2018,07,16,09,50,21.90
2018,07,16,09,51,21.80
2018,07,16,09,52,21.80
2018,07,16,09,53,21.90
2018,07,16,09,54,21.90
2018,07,16,09,55,22.00
2018,07,16,09,56,22.00
2018,07,16,09,57,22.00
2018,07,16,09,58,22.10
2018,07,16,09,59,22.10
2018,07,16,10,00,22.10
2018,07,16,10,01,22.10
2018,07,16,10,02,22.20
2018,07,16,10,03,22.20
2018,07,16,10,04,22.30
2018,07,16,10,05,22.30
2018,07,16,10,06,22.30
2018,07,16,10,07,22.40
2018,07,16,10,08,22.40
2018,07,16,10,09,22.40
2018,07,16,10,10,22.50
2018,07,16,10,11,22.60
2018,07,16,10,12,22.60
2018,07,16,10,13,22.60
2018,07,16,10,14,22.50
2018,07,16,10,15,22.40
2018,07,16,10,16,22.30
2018,07,16,10,17,22.20
2018,07,16,10,18,22.20
2018,07,16,10,19,22.20
2018,07,16,10,20,22.20
2018,07,16,10,21,22.20
2018,07,16,10,22,22.40
2018,07,16,10,23,22.50
2018,07,16,10,24,22.50
2018,07,16,10,25,22.50
2018,07,16,10,26,22.50
2018,07,16,10,27,22.50
2018,07,16,10,28,22.50
2018,07,16,10,29,22.60
2018,07,16,10,30,22.70
2018,07,16,10,31,22.70
2018,07,16,10,32,22.70
2018,07,16,10,33,22.70
2018,07,16,10,34,22.70
2018,07,16,10,35,22.80
2018,07,16,10,36,22.80
2018,07,16,10,37,22.70
2018,07,16,10,38,22.60
2018,07,16,10,39,22.40
2018,07,16,10,40,22.30
2018,07,16,10,41,22.20
2018,07,16,10,42,22.10
2018,07,16,10,43,22.10
2018,07,16,10,44,22.10
2018,07,16,10,45,22.10
2018,07,16,10,46,22.20
2018,07,16,10,47,22.20
2018,07,16,10,48,22.20
2018,07,16,10,49,22.30
2018,07,16,10,50,22.30
2018,07,16,10,51,22.40
2018,07,16,10,52,22.40
2018,07,16,10,53,22.40
2018,07,16,10,54,22.40
2018,07,16,10,55,22.50
2018,07,16,10,56,22.50
2018,07,16,10,57,22.60
2018,07,16,10,58,22.60
2018,07,16,10,59,22.60
2018,07,16,11,00,22.60
2018,07,16,11,01,22.60
2018,07,16,11,02,22.70
2018,07,16,11,03,22.70
2018,07,16,11,04,22.70
2018,07,16,11,05,22.70
2018,07,16,11,06,22.70
2018,07,16,11,07,22.60
2018,07,16,11,08,22.70
2018,07,16,11,09,22.70
2018,07,16,11,10,22.70
2018,07,16,11,11,22.80
2018,07,16,11,12,22.90
2018,07,16,11,13,23.00
2018,07,16,11,14,23.00
2018,07,16,11,15,23.00
2018,07,16,11,16,23.00
2018,07,16,11,17,23.00
2018,07,16,11,18,23.00
2018,07,16,11,19,23.00
2018,07,16,11,20,23.10
2018,07,16,11,21,23.10
2018,07,16,11,22,23.00
2018,07,16,11,23,22.90
2018,07,16,11,24,22.90
2018,07,16,11,25,22.90
2018,07,16,11,26,23.00
2018,07,16,11,27,23.00
2018,07,16,11,28,23.10
2018,07,16,11,29,23.10
2018,07,16,11,30,23.10
2018,07,16,11,31,23.10
2018,07,16,11,32,23.20
2018,07,16,11,33,23.20
2018,07,16,11,34,23.20
2018,07,16,11,35,23.20
2018,07,16,11,36,23.20
2018,07,16,11,37,23.20
2018,07,16,11,38,23.20
2018,07,16,11,39,23.30
2018,07,16,11,40,23.30
2018,07,16,11,41,23.30
2018,07,16,11,42,23.30
2018,07,16,11,43,23.30
2018,07,16,11,44,23.30
2018,07,16,11,45,23.30
2018,07,16,11,46,23.20
2018,07,16,11,47,23.20
2018,07,16,11,48,23.20
2018,07,16,11,49,23.30
2018,07,16,11,50,23.30
2018,07,16,11,51,23.30
2018,07,16,11,52,23.40
2018,07,16,11,53,23.40
2018,07,16,11,54,23.40
2018,07,16,11,55,23.40
2018,07,16,11,56,23.30
2018,07,16,11,57,23.30
2018,07,16,11,58,23.30
2018,07,16,11,59,23.40
2018,07,16,12,00,23.40
2018,07,16,12,01,23.50
2018,07,16,12,02,23.60
2018,07,16,12,03,23.70
2018,07,16,12,04,23.80
2018,07,16,12,05,23.90
2018,07,16,12,06,23.90
2018,07,16,12,07,23.80
2018,07,16,12,08,23.70
2018,07,16,12,09,23.60
2018,07,16,12,10,23.50
2018,07,16,12,11,23.40
2018,07,16,12,12,23.40
2018,07,16,12,13,23.40
2018,07,16,12,14,23.40
2018,07,16,12,15,23.40
2018,07,16,12,16,23.50
2018,07,16,12,17,23.40
2018,07,16,12,18,23.50
2018,07,16,12,19,23.50
2018,07,16,12,20,23.50
2018,07,16,12,21,23.60
2018,07,16,12,22,23.60
2018,07,16,12,23,23.50
2018,07,16,12,24,23.50
2018,07,16,12,25,23.60
2018,07,16,12,26,23.60
2018,07,16,12,27,23.60
2018,07,16,12,28,23.60
2018,07,16,12,29,23.70
2018,07,16,12,30,23.80
2018,07,16,12,31,23.90
2018,07,16,12,32,23.90
2018,07,16,12,33,23.90
2018,07,16,12,34,23.90
2018,07,16,12,35,23.90
2018,07,16,12,36,23.80
2018,07,16,12,37,23.70
2018,07,16,12,38,23.60
2018,07,16,12,39,23.60
2018,07,16,12,40,23.60
2018,07,16,12,41,23.50
2018,07,16,12,42,23.60
2018,07,16,12,43,23.60
2018,07,16,12,44,23.70
2018,07,16,12,45,23.80
2018,07,16,12,46,23.80
2018,07,16,12,47,23.90
2018,07,16,12,48,23.90
2018,07,16,12,49,23.90
2018,07,16,12,50,24.00
2018,07,16,12,51,24.00
2018,07,16,12,52,24.00
2018,07,16,12,53,24.00
2018,07,16,12,54,24.10
2018,07,16,12,55,24.10
2018,07,16,12,56,24.20
2018,07,16,12,57,24.30
2018,07,16,12,58,24.40
2018,07,16,12,59,24.50
2018,07,16,13,00,24.60
2018,07,16,13,01,24.60
2018,07,16,13,02,24.60
2018,07,16,13,03,24.50
2018,07,16,13,04,24.40
2018,07,16,13,05,24.40
2018,07,16,13,06,24.30
2018,07,16,13,07,24.30
2018,07,16,13,08,24.30
2018,07,16,13,09,24.30
2018,07,16,13,10,24.30
2018,07,16,13,11,24.40
2018,07,16,13,12,24.50
2018,07,16,13,13,24.50
2018,07,16,13,14,24.60
2018,07,16,13,15,24.60
2018,07,16,13,16,24.60
2018,07,16,13,17,24.60
2018,07,16,13,18,24.60
2018,07,16,13,19,24.60
2018,07,16,13,20,24.60
2018,07,16,13,21,24.60
2018,07,16,13,22,24.70
2018,07,16,13,23,24.70
2018,07,16,13,24,24.80
2018,07,16,13,25,24.70
2018,07,16,13,26,24.70
2018,07,16,13,27,24.80
2018,07,16,13,28,24.80
2018,07,16,13,29,24.70
2018,07,16,13,30,24.80
2018,07,16,13,31,24.80
2018,07,16,13,32,24.80
2018,07,16,13,33,24.70
2018,07,16,13,34,24.70
2018,07,16,13,35,24.70
2018,07,16,13,36,24.60
2018,07,16,13,37,24.60
2018,07,16,13,38,24.70
2018,07,16,13,39,24.60
2018,07,16,13,40,24.60
2018,07,16,13,41,24.50
2018,07,16,13,42,24.50
2018,07,16,13,43,24.60
2018,07,16,13,44,24.60
2018,07,16,13,45,24.60
2018,07,16,13,46,24.60
2018,07,16,13,47,24.60
2018,07,16,13,48,24.70
2018,07,16,13,49,24.60
2018,07,16,13,50,24.60
2018,07,16,13,51,24.60
2018,07,16,13,52,24.60
2018,07,16,13,53,24.60
2018,07,16,13,54,24.60
2018,07,16,13,55,24.60
2018,07,16,13,56,24.70
2018,07,16,13,57,24.80
2018,07,16,13,58,24.80
2018,07,16,13,59,24.80
2018,07,16,14,00,24.90
2018,07,16,14,01,24.90
2018,07,16,14,02,24.90
2018,07,16,14,03,24.90
2018,07,16,14,04,25.00
2018,07,16,14,05,25.10
2018,07,16,14,06,25.20
2018,07,16,14,07,25.20
2018,07,16,14,08,25.30
2018,07,16,14,09,25.30
2018,07,16,14,10,25.30
2018,07,16,14,11,25.30
2018,07,16,14,12,25.20
2018,07,16,14,13,25.20
2018,07,16,14,14,25.20
2018,07,16,14,15,25.20
2018,07,16,14,16,25.20
2018,07,16,14,17,25.20
2018,07,16,14,18,25.20
2018,07,16,14,19,25.20
2018,07,16,14,20,25.20
2018,07,16,14,21,25.30
2018,07,16,14,22,25.30
2018,07,16,14,23,25.30
2018,07,16,14,24,25.30
2018,07,16,14,25,25.20
2018,07,16,14,26,25.10
2018,07,16,14,27,25.10
2018,07,16,14,28,25.00
2018,07,16,14,29,25.00
2018,07,16,14,30,24.90
2018,07,16,14,31,24.90
2018,07,16,14,32,25.00
2018,07,16,14,33,25.00
2018,07,16,14,34,25.10
2018,07,16,14,35,25.10
2018,07,16,14,36,25.20
2018,07,16,14,37,25.20
2018,07,16,14,38,25.20
2018,07,16,14,39,25.20
2018,07,16,14,40,25.30
2018,07,16,14,41,25.40
2018,07,16,14,42,25.40
2018,07,16,14,43,25.40
2018,07,16,14,44,25.40
2018,07,16,14,45,25.50
2018,07,16,14,46,25.50
2018,07,16,14,47,25.60
2018,07,16,14,48,25.60
2018,07,16,14,49,25.60
2018,07,16,14,50,25.60
2018,07,16,14,51,25.50
2018,07,16,14,52,25.50
2018,07,16,14,53,25.40
2018,07,16,14,54,25.30
2018,07,16,14,55,25.30
2018,07,16,14,56,25.30
2018,07,16,14,57,25.40
2018,07,16,14,58,25.40
2018,07,16,14,59,25.40
2018,07,16,15,00,25.40
2018,07,16,15,01,25.50
2018,07,16,15,02,25.50
2018,07,16,15,03,25.60
2018,07,16,15,04,25.60
2018,07,16,15,05,25.60
2018,07,16,15,06,25.60
2018,07,16,15,07,25.60
2018,07,16,15,08,25.70
2018,07,16,15,09,25.70
2018,07,16,15,10,25.70
2018,07,16,15,11,25.70
2018,07,16,15,12,25.80
2018,07,16,15,13,25.80
2018,07,16,15,14,25.90
2018,07,16,15,15,26.00
2018,07,16,15,16,26.10
2018,07,16,15,17,26.10
2018,07,16,15,18,26.20
2018,07,16,15,19,26.20
2018,07,16,15,20,26.20
2018,07,16,15,21,26.30
2018,07,16,15,22,26.30
2018,07,16,15,23,26.30
2018,07,16,15,24,26.30
2018,07,16,15,25,26.30
2018,07,16,15,26,26.40
2018,07,16,15,27,26.40
2018,07,16,15,28,26.40
2018,07,16,15,29,26.50
2018,07,16,15,30,26.50
2018,07,16,15,31,26.40
2018,07,16,15,32,26.40
2018,07,16,15,33,26.30
2018,07,16,15,34,26.40
2018,07,16,15,35,26.50
2018,07,16,15,36,26.60
2018,07,16,15,37,26.70
2018,07,16,15,38,26.80
2018,07,16,15,39,26.80
2018,07,16,15,40,26.80
2018,07,16,15,41,26.90
2018,07,16,15,42,26.80
2018,07,16,15,43,26.80
2018,07,16,15,44,26.70
2018,07,16,15,45,26.60
2018,07,16,15,46,26.60
2018,07,16,15,47,26.50
2018,07,16,15,48,26.50
2018,07,16,15,49,26.50
2018,07,16,15,50,26.60
2018,07,16,15,51,26.70
2018,07,16,15,52,26.60
2018,07,16,15,53,26.70
2018,07,16,15,54,26.70
2018,07,16,15,55,26.70
2018,07,16,15,56,26.70
2018,07,16,15,57,26.80
2018,07,16,15,58,26.90
2018,07,16,15,59,26.90
2018,07,16,16,00,26.90
2018,07,16,16,01,27.00
2018,07,16,16,02,27.10
2018,07,16,16,03,27.10
2018,07,16,16,04,27.00
2018,07,16,16,05,26.90
2018,07,16,16,06,26.80
2018,07,16,16,07,26.80
2018,07,16,16,08,26.80
2018,07,16,16,09,26.80
2018,07,16,16,10,26.80
2018,07,16,16,11,26.80
2018,07,16,16,12,26.90
2018,07,16,16,13,27.00
2018,07,16,16,14,27.00
2018,07,16,16,15,27.00
2018,07,16,16,16,26.90
2018,07,16,16,17,26.80
2018,07,16,16,18,26.70
2018,07,16,16,19,26.60
2018,07,16,16,20,26.50
2018,07,16,16,21,26.50
2018,07,16,16,22,26.50
2018,07,16,16,23,26.50
2018,07,16,16,24,26.50
2018,07,16,16,25,26.60
2018,07,16,16,26,26.60
2018,07,16,16,27,26.60
2018,07,16,16,28,26.60
2018,07,16,16,29,26.60
2018,07,16,16,30,26.70
2018,07,16,16,31,26.70
2018,07,16,16,32,26.80
2018,07,16,16,33,26.80
2018,07,16,16,34,26.80
2018,07,16,16,35,26.80
2018,07,16,16,36,26.80
2018,07,16,16,37,26.80
2018,07,16,16,38,26.80
2018,07,16,16,39,26.80
2018,07,16,16,40,26.80
2018,07,16,16,41,26.70
2018,07,16,16,42,26.70
2018,07,16,16,43,26.60
2018,07,16,16,44,26.50
2018,07,16,16,45,26.40
2018,07,16,16,46,26.40
2018,07,16,16,47,26.40
2018,07,16,16,48,26.40
2018,07,16,16,49,26.40
2018,07,16,16,50,26.40
2018,07,16,16,51,26.40
2018,07,16,16,52,26.50
2018,07,16,16,53,26.50
2018,07,16,16,54,26.60
2018,07,16,16,55,26.60
2018,07,16,16,56,26.60
2018,07,16,16,57,26.60
2018,07,16,16,58,26.60
2018,07,16,16,59,26.60
2018,07,16,17,00,26.70
2018,07,16,17,01,26.70
2018,07,16,17,02,26.70
2018,07,16,17,03,26.70
2018,07,16,17,04,26.70
2018,07,16,17,05,26.70
2018,07,16,17,06,26.70
2018,07,16,17,07,26.80
2018,07,16,17,08,26.90
2018,07,16,17,09,27.00
2018,07,16,17,10,27.00
2018,07,16,17,11,27.10
2018,07,16,17,12,27.20
2018,07,16,17,13,27.20
2018,07,16,17,14,27.10
2018,07,16,17,15,27.00
2018,07,16,17,16,26.90
2018,07,16,17,17,26.90
2018,07,16,17,18,26.80
2018,07,16,17,19,26.80